When you browse on this site, cookies collect data to enhance your experience and personalize the content and advertising you see.
Visit our Privacy Policy to learn more. By continuing to use the site, you agree to this use of cookies and data.
  • In Deutschland
  • Länderverzeichnis
  • Für 7 Tage
  • Wassertemperatur
  • Satellitenkarten
  • Wetterkarte
  • Widgets
  • user-avatar
    Anmelden

    Stündliche Wetter Gomel

    Heute, 20 März, Mittwoch

    Zeit Temperatur Niederschläge Wind Luftdruck Luftfeuchtigkeit
    00:00 +4°C° 0 mm 2 m/S 757 mmHg 76%
    01:00 +4°C° 0 mm 2 m/S 757 mmHg 76%
    02:00 +3°C° 0 mm 2 m/S 757 mmHg 77%
    03:00 +3°C° 0 mm 2 m/S 757 mmHg 78%
    04:00 +3°C° 0 mm 2 m/S 758 mmHg 78%
    05:00 +3°C° 0 mm 2 m/S 758 mmHg 78%
    06:00 +3°C° 0 mm 2 m/S 758 mmHg 77%
    07:00 +3°C° 0 mm 2 m/S 758 mmHg 75%
    08:00 +3°C° 0 mm 3 m/S 759 mmHg 72%
    09:00 +3°C° 0 mm 3 m/S 759 mmHg 66%
    10:00 +4°C° 0 mm 4 m/S 759 mmHg 60%
    11:00 +5°C° 0 mm 4 m/S 759 mmHg 53%
    12:00 +6°C° 0 mm 4 m/S 759 mmHg 51%
    13:00 +6°C° 0 mm 5 m/S 759 mmHg 49%
    14:00 +7°C° 0 mm 4 m/S 759 mmHg 45%
    15:00 +6°C° 0 mm 4 m/S 759 mmHg 48%
    16:00 +6°C° 0 mm 4 m/S 759 mmHg 51%
    17:00 +5°C° 0 mm 4 m/S 759 mmHg 53%
    18:00 +4°C° 0 mm 4 m/S 759 mmHg 59%
    19:00 +3°C° 0 mm 3 m/S 759 mmHg 65%
    20:00 +3°C° 0 mm 2 m/S 759 mmHg 71%
    21:00 +2°C° 0 mm 2 m/S 759 mmHg 73%
    22:00 +1°C° 0 mm 2 m/S 759 mmHg 75%
    23:00 +2°C° 0 mm 1 m/S 759 mmHg 77%

    Morgen, 21 März, Donnerstag

    Zeit Temperatur Niederschläge Wind Luftdruck Luftfeuchtigkeit
    00:00 +1°C° 0 mm 2 m/S 759 mmHg 78%
    01:00 +1°C° 0 mm 2 m/S 759 mmHg 79%
    02:00 0°C° 0 mm 3 m/S 758 mmHg 79%
    03:00 0°C° 0 mm 3 m/S 758 mmHg 76%
    04:00 0°C° 0 mm 4 m/S 757 mmHg 73%
    05:00 0°C° 0 mm 4 m/S 757 mmHg 70%
    06:00 0°C° 0.2 mm 4 m/S 757 mmHg 72%
    07:00 +1°C° 0.2 mm 5 m/S 757 mmHg 74%
    08:00 +1°C° 0.2 mm 5 m/S 756 mmHg 77%
    09:00 +2°C° 0 mm 6 m/S 757 mmHg 74%
    10:00 +3°C° 0 mm 6 m/S 757 mmHg 71%
    11:00 +5°C° 0 mm 6 m/S 757 mmHg 68%
    12:00 +6°C° 0 mm 5 m/S 757 mmHg 67%
    13:00 +6°C° 0 mm 5 m/S 757 mmHg 65%
    14:00 +7°C° 0 mm 5 m/S 757 mmHg 63%
    15:00 +7°C° 0 mm 4 m/S 757 mmHg 63%
    16:00 +8°C° 0 mm 3 m/S 757 mmHg 63%
    17:00 +8°C° 0 mm 3 m/S 757 mmHg 63%
    18:00 +7°C° 0 mm 2 m/S 757 mmHg 68%
    19:00 +6°C° 0 mm 2 m/S 757 mmHg 72%
    20:00 +4°C° 0 mm 2 m/S 757 mmHg 77%
    21:00 +4°C° 0 mm 2 m/S 757 mmHg 80%
    22:00 +4°C° 0 mm 2 m/S 757 mmHg 82%
    23:00 +2°C° 0 mm 3 m/S 756 mmHg 85%

    übermorgen, 22 März, Freitag

    Zeit Temperatur Niederschläge Wind Luftdruck Luftfeuchtigkeit
    00:00 +2°C° 0 mm 3 m/S 756 mmHg 87%
    01:00 +3°C° 0 mm 3 m/S 756 mmHg 88%
    02:00 +3°C° 0 mm 3 m/S 756 mmHg 89%
    03:00 +3°C° 0.2 mm 3 m/S 755 mmHg 90%
    04:00 +3°C° 0.2 mm 4 m/S 755 mmHg 90%
    05:00 +4°C° 0.2 mm 4 m/S 754 mmHg 91%
    06:00 +3°C° 0.7 mm 5 m/S 754 mmHg 91%
    07:00 +5°C° 0.7 mm 5 m/S 753 mmHg 91%
    08:00 +5°C° 0.7 mm 6 m/S 753 mmHg 92%
    09:00 +7°C° 0.1 mm 6 m/S 753 mmHg 86%
    10:00 +8°C° 0.1 mm 7 m/S 753 mmHg 81%
    11:00 +9°C° 0.1 mm 8 m/S 753 mmHg 75%
    12:00 +9°C° 0.1 mm 8 m/S 753 mmHg 65%
    13:00 +10°C° 0.1 mm 9 m/S 753 mmHg 56%
    14:00 +11°C° 0.1 mm 10 m/S 753 mmHg 46%
    15:00 +8°C° 0 mm 9 m/S 753 mmHg 44%
    16:00 +7°C° 0 mm 8 m/S 754 mmHg 43%
    17:00 +5°C° 0 mm 7 m/S 754 mmHg 41%
    18:00 +4°C° 0 mm 6 m/S 755 mmHg 46%
    19:00 +3°C° 0 mm 6 m/S 755 mmHg 50%
    20:00 +1°C° 0 mm 5 m/S 755 mmHg 54%
    21:00 +1°C° 0 mm 5 m/S 756 mmHg 56%
    22:00 +1°C° 0 mm 5 m/S 756 mmHg 57%
    23:00 0°C° 0 mm 5 m/S 756 mmHg 59%

    23 März, Samstag

    Zeit Temperatur Niederschläge Wind Luftdruck Luftfeuchtigkeit
    00:00 0°C° 0 mm 5 m/S 756 mmHg 61%
    01:00 -1°C° 0 mm 5 m/S 756 mmHg 63%
    02:00 -1°C° 0 mm 5 m/S 756 mmHg 66%
    03:00 -1°C° 0 mm 5 m/S 756 mmHg 67%
    04:00 -2°C° 0 mm 5 m/S 756 mmHg 69%
    05:00 -2°C° 0 mm 5 m/S 756 mmHg 71%
    06:00 -2°C° 0 mm 5 m/S 756 mmHg 69%
    07:00 -1°C° 0 mm 5 m/S 756 mmHg 68%
    08:00 -1°C° 0 mm 5 m/S 756 mmHg 66%
    09:00 +1°C° 0 mm 5 m/S 756 mmHg 62%
    10:00 +2°C° 0 mm 5 m/S 757 mmHg 58%
    11:00 +3°C° 0 mm 5 m/S 757 mmHg 55%
    12:00 +5°C° 0 mm 4 m/S 756 mmHg 53%
    13:00 +5°C° 0 mm 4 m/S 756 mmHg 52%
    14:00 +6°C° 0 mm 4 m/S 756 mmHg 50%
    15:00 +7°C° 0 mm 3 m/S 756 mmHg 52%
    16:00 +7°C° 0 mm 3 m/S 756 mmHg 53%
    17:00 +7°C° 0 mm 2 m/S 756 mmHg 54%
    18:00 +6°C° 0 mm 2 m/S 756 mmHg 57%
    19:00 +6°C° 0 mm 1 m/S 756 mmHg 60%
    20:00 +5°C° 0 mm 1 m/S 755 mmHg 63%
    21:00 +5°C° 0 mm 1 m/S 755 mmHg 62%
    22:00 +4°C° 0 mm 2 m/S 755 mmHg 61%
    23:00 +4°C° 0 mm 2 m/S 754 mmHg 60%

    24 März, Sonntag

    Zeit Temperatur Niederschläge Wind Luftdruck Luftfeuchtigkeit
    00:00 +3°C° 0.2 mm 3 m/S 754 mmHg 61%
    01:00 +3°C° 0.2 mm 3 m/S 753 mmHg 62%
    02:00 +3°C° 0.2 mm 4 m/S 753 mmHg 63%
    03:00 +4°C° 0.3 mm 4 m/S 753 mmHg 73%
    04:00 +4°C° 0.3 mm 4 m/S 753 mmHg 84%
    05:00 +5°C° 0.3 mm 3 m/S 752 mmHg 94%
    06:00 +5°C° 0 mm 4 m/S 753 mmHg 87%
    07:00 +5°C° 0 mm 5 m/S 753 mmHg 80%
    08:00 +4°C° 0 mm 6 m/S 753 mmHg 74%
    09:00 +4°C° 0 mm 6 m/S 753 mmHg 66%
    10:00 +5°C° 0 mm 6 m/S 754 mmHg 59%
    11:00 +7°C° 0 mm 6 m/S 754 mmHg 51%
    12:00 +7°C° 0 mm 6 m/S 754 mmHg 48%
    13:00 +7°C° 0 mm 6 m/S 754 mmHg 44%
    14:00 +8°C° 0 mm 6 m/S 754 mmHg 41%
    15:00 +8°C° 0 mm 6 m/S 754 mmHg 42%
    16:00 +7°C° 0 mm 5 m/S 754 mmHg 43%
    17:00 +7°C° 0 mm 4 m/S 754 mmHg 45%
    18:00 +6°C° 0 mm 4 m/S 754 mmHg 49%
    19:00 +4°C° 0 mm 3 m/S 754 mmHg 54%
    20:00 +3°C° 0 mm 3 m/S 755 mmHg 59%
    21:00 +3°C° 0 mm 2 m/S 755 mmHg 61%
    22:00 +3°C° 0 mm 2 m/S 755 mmHg 63%
    23:00 +2°C° 0 mm 2 m/S 755 mmHg 65%

    25 März, Montag

    Zeit Temperatur Niederschläge Wind Luftdruck Luftfeuchtigkeit
    00:00 +2°C° 0 mm 2 m/S 755 mmHg 66%
    01:00 +2°C° 0 mm 1 m/S 755 mmHg 68%
    02:00 +2°C° 0 mm 1 m/S 754 mmHg 69%
    03:00 +2°C° 0 mm 1 m/S 754 mmHg 69%
    04:00 +2°C° 0 mm 1 m/S 754 mmHg 69%
    05:00 +1°C° 0 mm 1 m/S 754 mmHg 69%
    06:00 +1°C° 0 mm 2 m/S 753 mmHg 66%
    07:00 +1°C° 0 mm 3 m/S 753 mmHg 63%
    08:00 +2°C° 0 mm 3 m/S 753 mmHg 60%
    09:00 +3°C° 0 mm 4 m/S 752 mmHg 56%
    10:00 +4°C° 0 mm 4 m/S 751 mmHg 52%
    11:00 +5°C° 0 mm 5 m/S 750 mmHg 48%
    12:00 +6°C° 0 mm 5 m/S 749 mmHg 48%
    13:00 +6°C° 0 mm 5 m/S 749 mmHg 48%
    14:00 +7°C° 0 mm 5 m/S 748 mmHg 48%
    15:00 +6°C° 0.1 mm 5 m/S 747 mmHg 52%
    16:00 +6°C° 0.1 mm 4 m/S 746 mmHg 56%
    17:00 +6°C° 0.1 mm 4 m/S 745 mmHg 60%
    18:00 +5°C° 0.2 mm 4 m/S 744 mmHg 65%
    19:00 +5°C° 0.2 mm 5 m/S 743 mmHg 70%
    20:00 +3°C° 0.2 mm 6 m/S 743 mmHg 75%
    21:00 +3°C° 0.4 mm 6 m/S 742 mmHg 77%
    22:00 +3°C° 0.4 mm 6 m/S 742 mmHg 80%
    23:00 +3°C° 0.4 mm 6 m/S 741 mmHg 82%
    Mehr zeigen